| time (UTC) | temp C | wind direction | speed KPH | gust KPH | rain 1hr cm | rain 24hr cm | rain mn cm | humidity % | barometer mb |
| 20260507182203 | 17 | 232 | 9.7 | 12.9 | 0.00 | 0.66 | 0.00 | 31 | 1017.7 |
| 20260507181704 | 17 | 223 | 11.3 | 19.3 | 0.00 | 0.66 | 0.00 | 32 | 1017.7 |
| 20260507181204 | 17 | 192 | 11.3 | 22.5 | 0.00 | 0.69 | 0.00 | 32 | 1017.8 |
| 20260507180704 | 17 | 225 | 9.7 | 19.3 | 0.00 | 0.69 | 0.00 | 33 | 1017.9 |
| 20260507180204 | 17 | 222 | 9.7 | 16.1 | 0.00 | 0.71 | 0.00 | 33 | 1018.0 |
| 20260507175704 | 17 | 222 | 9.7 | 16.1 | 0.00 | 0.71 | 0.00 | 32 | 1018.0 |
| 20260507175203 | 17 | 223 | 4.8 | 19.3 | 0.00 | 0.71 | 0.00 | 32 | 1018.0 |
| 20260507174703 | 17 | 198 | 9.7 | 20.9 | 0.00 | 0.74 | 0.00 | 33 | 1017.9 |
| 20260507174203 | 17 | 174 | 9.7 | 27.4 | 0.00 | 0.74 | 0.00 | 34 | 1017.9 |
| 20260507173704 | 17 | 182 | 14.5 | 20.9 | 0.00 | 0.79 | 0.00 | 34 | 1018.0 |
| 20260507173204 | 17 | 192 | 9.7 | 19.3 | 0.00 | 0.79 | 0.00 | 36 | 1018.0 |
| 20260507172704 | 16 | 191 | 9.7 | 16.1 | 0.00 | 0.79 | 0.00 | 35 | 1018.1 |
| 20260507172204 | 16 | 201 | 9.7 | 19.3 | 0.00 | 0.79 | 0.00 | 36 | 1018.2 |
| 20260507171704 | 15 | 179 | 8.0 | 29.0 | 0.00 | 0.81 | 0.00 | 36 | 1018.2 |
| 20260507171204 | 15 | 187 | 11.3 | 20.9 | 0.00 | 0.81 | 0.00 | 35 | 1018.2 |
| 20260507170704 | 15 | 194 | 16.1 | 24.1 | 0.00 | 0.81 | 0.00 | 34 | 1018.3 |
| 20260507170204 | 15 | 193 | 16.1 | 27.4 | 0.00 | 0.84 | 0.00 | 35 | 1018.3 |
| 20260507165203 | 15 | 191 | 14.5 | 25.7 | 0.00 | 0.84 | 0.00 | 35 | 1018.5 |
| 20260507164704 | 15 | 180 | 16.1 | 25.7 | 0.00 | 0.86 | 0.00 | 36 | 1018.5 |
| 20260507164204 | 15 | 192 | 11.3 | 25.7 | 0.00 | 0.86 | 0.00 | 38 | 1018.5 |
| 20260507163704 | 15 | 192 | 11.3 | 27.4 | 0.00 | 0.86 | 0.00 | 39 | 1018.6 |
| 20260507163203 | 15 | 189 | 14.5 | 27.4 | 0.00 | 0.89 | 0.00 | 38 | 1018.7 |
| 20260507162704 | 14 | 193 | 14.5 | 25.7 | 0.00 | 0.89 | 0.00 | 38 | 1018.6 |
| 20260507162204 | 14 | 180 | 11.3 | 24.1 | 0.00 | 0.89 | 0.00 | 39 | 1018.7 |
| 20260507161704 | 13 | 187 | 14.5 | 29.0 | 0.00 | 0.89 | 0.00 | 39 | 1018.7 |
| 20260507161203 | 13 | 175 | 14.5 | 24.1 | 0.00 | 0.89 | 0.00 | 39 | 1018.8 |
| 20260507160204 | 13 | 191 | 11.3 | 19.3 | 0.00 | 0.89 | 0.00 | 39 | 1018.9 |
| 20260507155703 | 13 | 183 | 11.3 | 19.3 | 0.00 | 0.89 | 0.00 | 39 | 1019.0 |
| 20260507155203 | 12 | 176 | 14.5 | 25.7 | 0.00 | 0.91 | 0.00 | 39 | 1019.0 |
| 20260507154704 | 12 | 179 | 9.7 | 16.1 | 0.00 | 0.91 | 0.00 | 41 | 1019.0 |
| 20260507154204 | 12 | 184 | 14.5 | 25.7 | 0.00 | 0.91 | 0.00 | 40 | 1019.0 |
| 20260507153705 | 12 | 176 | 11.3 | 24.1 | 0.00 | 0.91 | 0.00 | 41 | 1019.1 |
| 20260507152704 | 12 | 171 | 11.3 | 19.3 | 0.00 | 0.91 | 0.00 | 41 | 1019.0 |
| 20260507151704 | 11 | 180 | 9.7 | 19.3 | 0.00 | 0.91 | 0.00 | 41 | 1019.1 |
| 20260507151205 | 11 | 170 | 8.0 | 16.1 | 0.00 | 0.91 | 0.00 | 42 | 1019.2 |
| 20260507150704 | 11 | 183 | 12.9 | 19.3 | 0.00 | 0.91 | 0.00 | 41 | 1019.2 |
| 20260507150204 | 10 | 192 | 11.3 | 20.9 | 0.00 | 0.91 | 0.00 | 42 | 1019.2 |
| 20260507145704 | 10 | 173 | 11.3 | 22.5 | 0.00 | 0.91 | 0.00 | 42 | 1019.2 |
| 20260507145204 | 10 | 186 | 16.1 | 22.5 | 0.00 | 0.91 | 0.00 | 43 | 1019.1 |
| 20260507144704 | 10 | 190 | 12.9 | 24.1 | 0.00 | 0.91 | 0.00 | 44 | 1019.1 |
| 20260507144203 | 9 | 184 | 16.1 | 25.7 | 0.00 | 0.91 | 0.00 | 44 | 1019.2 |
| 20260507143705 | 9 | 177 | 9.7 | 25.7 | 0.00 | 0.91 | 0.00 | 44 | 1019.3 |
| 20260507143205 | 8 | 193 | 14.5 | 24.1 | 0.00 | 0.91 | 0.00 | 44 | 1019.2 |
| 20260507142704 | 8 | 185 | 12.9 | 19.3 | 0.00 | 0.91 | 0.00 | 45 | 1019.3 |
| 20260507142203 | 8 | 185 | 16.1 | 27.4 | 0.00 | 0.91 | 0.00 | 46 | 1019.1 |
| 20260507141703 | 8 | 183 | 14.5 | 24.1 | 0.00 | 0.91 | 0.00 | 46 | 1019.1 |
| 20260507141203 | 8 | 184 | 11.3 | 24.1 | 0.00 | 0.91 | 0.00 | 47 | 1019.2 |
| 20260507140704 | 7 | 177 | 12.9 | 25.7 | 0.00 | 0.91 | 0.00 | 46 | 1019.2 |
| 20260507140205 | 7 | 179 | 11.3 | 20.9 | 0.00 | 0.91 | 0.00 | 47 | 1019.2 |
| 20260507135703 | 7 | 193 | 9.7 | 22.5 | 0.00 | 0.91 | 0.00 | 48 | 1019.4 |
| 20260507135204 | 7 | 193 | 12.9 | 25.7 | 0.00 | 0.91 | 0.00 | 49 | 1019.4 |
| 20260507134704 | 6 | 188 | 12.9 | 25.7 | 0.00 | 0.91 | 0.00 | 50 | 1019.3 |
| 20260507134203 | 6 | 178 | 14.5 | 24.1 | 0.00 | 0.91 | 0.00 | 51 | 1019.2 |
| 20260507133204 | 6 | 182 | 11.3 | 19.3 | 0.00 | 0.91 | 0.00 | 51 | 1019.2 |
| 20260507132704 | 6 | 174 | 11.3 | 19.3 | 0.00 | 0.91 | 0.00 | 51 | 1019.2 |
| 20260507132204 | 6 | 172 | 11.3 | 19.3 | 0.00 | 0.91 | 0.00 | 51 | 1019.2 |
| 20260507131705 | 6 | 182 | 11.3 | 19.3 | 0.00 | 0.91 | 0.00 | 51 | 1019.2 |
| 20260507131203 | 6 | 189 | 11.3 | 19.3 | 0.00 | 0.91 | 0.00 | 51 | 1019.2 |
| 20260507130203 | 5 | 178 | 9.7 | 20.9 | 0.00 | 0.91 | 0.00 | 52 | 1019.2 |
| 20260507125705 | 5 | 185 | 14.5 | 24.1 | 0.00 | 0.91 | 0.00 | 53 | 1019.1 |
| 20260507125204 | 5 | 174 | 12.9 | 20.9 | 0.00 | 0.91 | 0.00 | 53 | 1019.0 |
| 20260507124205 | 4 | 180 | 12.9 | 19.3 | 0.00 | 0.91 | 0.00 | 55 | 1018.9 |
| 20260507123705 | 3 | 179 | 12.9 | 19.3 | 0.00 | 0.91 | 0.00 | 56 | 1018.9 |
| 20260507123204 | 3 | 175 | 11.3 | 16.1 | 0.00 | 0.91 | 0.00 | 56 | 1018.9 |
| 20260507122705 | 3 | 175 | 9.7 | 20.9 | 0.00 | 0.91 | 0.00 | 57 | 1018.8 |
| 20260507122203 | 3 | 184 | 11.3 | 19.3 | 0.00 | 0.91 | 0.00 | 57 | 1018.8 |
| 20260507121704 | 3 | 177 | 9.7 | 16.1 | 0.00 | 0.91 | 0.00 | 57 | 1018.8 |
| 20260507121204 | 3 | 183 | 8.0 | 16.1 | 0.00 | 0.91 | 0.00 | 57 | 1018.8 |
| 20260507120703 | 3 | 176 | 9.7 | 16.1 | 0.00 | 0.91 | 0.00 | 57 | 1018.8 |
| 20260507120203 | 3 | 180 | 4.8 | 9.7 | 0.00 | 0.91 | 0.00 | 57 | 1018.8 |
| 20260507115204 | 3 | 172 | 8.0 | 16.1 | 0.00 | 0.91 | 0.00 | 57 | 1018.9 |
| 20260507114703 | 3 | 176 | 9.7 | 19.3 | 0.00 | 0.91 | 0.00 | 57 | 1018.8 |
| 20260507114202 | 3 | 168 | 11.3 | 19.3 | 0.00 | 0.91 | 0.00 | 57 | 1018.7 |
| 20260507113202 | 3 | 176 | 9.7 | 14.5 | 0.00 | 0.91 | 0.00 | 57 | 1018.7 |
| 20260507112703 | 3 | 172 | 9.7 | 14.5 | 0.00 | 0.91 | 0.00 | 57 | 1018.6 |
| 20260507112203 | 3 | 175 | 11.3 | 19.3 | 0.00 | 0.91 | 0.00 | 57 | 1018.6 |
| 20260507111703 | 3 | 182 | 9.7 | 19.3 | 0.00 | 0.91 | 0.00 | 57 | 1018.6 |
| 20260507111203 | 3 | 180 | 11.3 | 19.3 | 0.00 | 0.91 | 0.00 | 58 | 1018.6 |
| 20260507110703 | 2 | 171 | 9.7 | 19.3 | 0.00 | 0.91 | 0.00 | 59 | 1018.6 |
| 20260507110202 | 2 | 174 | 11.3 | 19.3 | 0.00 | 0.91 | 0.00 | 59 | 1018.7 |
| 20260507105703 | 2 | 177 | 14.5 | 20.9 | 0.00 | 0.91 | 0.00 | 59 | 1018.7 |
| 20260507105203 | 2 | 175 | 11.3 | 19.3 | 0.00 | 0.91 | 0.00 | 60 | 1018.7 |
| 20260507104702 | 2 | 184 | 9.7 | 14.5 | 0.00 | 0.91 | 0.00 | 60 | 1018.7 |
| 20260507104202 | 2 | 174 | 11.3 | 14.5 | 0.00 | 0.91 | 0.00 | 60 | 1018.7 |
| 20260507103704 | 2 | 173 | 9.7 | 16.1 | 0.00 | 0.91 | 0.00 | 61 | 1018.7 |
| 20260507103204 | 2 | 171 | 8.0 | 12.9 | 0.00 | 0.91 | 0.00 | 61 | 1018.8 |
| 20260507102703 | 2 | 178 | 8.0 | 16.1 | 0.00 | 0.91 | 0.00 | 61 | 1018.9 |
| 20260507102204 | 2 | 177 | 12.9 | 19.3 | 0.00 | 0.91 | 0.00 | 61 | 1018.9 |
| 20260507101703 | 2 | 176 | 9.7 | 19.3 | 0.00 | 0.91 | 0.00 | 61 | 1018.9 |
| 20260507101203 | 2 | 178 | 9.7 | 14.5 | 0.00 | 0.91 | 0.00 | 61 | 1019.0 |
| 20260507100702 | 2 | 166 | 4.8 | 14.5 | 0.00 | 0.91 | 0.00 | 62 | 1019.1 |
| 20260507100203 | 2 | 171 | 8.0 | 12.9 | 0.00 | 0.91 | 0.00 | 63 | 1019.0 |
| 20260507095703 | 2 | 173 | 9.7 | 14.5 | 0.00 | 0.91 | 0.00 | 65 | 1019.0 |
| 20260507095202 | 2 | 170 | 8.0 | 12.9 | 0.00 | 0.91 | 0.00 | 65 | 1019.0 |
| 20260507094704 | 2 | 169 | 9.7 | 19.3 | 0.00 | 0.91 | 0.00 | 66 | 1019.1 |
| 20260507094204 | 2 | 174 | 9.7 | 12.9 | 0.00 | 0.91 | 0.00 | 66 | 1019.1 |
| 20260507093702 | 2 | 168 | 9.7 | 16.1 | 0.00 | 0.91 | 0.00 | 66 | 1019.2 |
| 20260507093203 | 2 | 179 | 12.9 | 20.9 | 0.00 | 0.91 | 0.00 | 67 | 1019.1 |
| 20260507092702 | 1 | 175 | 9.7 | 16.1 | 0.00 | 0.91 | 0.00 | 68 | 1019.2 |
| 20260507091703 | 1 | 176 | 8.0 | 12.9 | 0.00 | 0.91 | 0.00 | 69 | 1019.2 |
| 20260507090703 | 1 | 166 | 8.0 | 12.9 | 0.00 | 0.91 | 0.00 | 70 | 1019.1 |
| 20260507090203 | 1 | 167 | 9.7 | 14.5 | 0.00 | 0.91 | 0.00 | 70 | 1019.1 |
| 20260507085703 | 1 | 173 | 9.7 | 14.5 | 0.00 | 0.91 | 0.00 | 71 | 1019.2 |
| 20260507085203 | 1 | 167 | 8.0 | 14.5 | 0.00 | 0.91 | 0.00 | 72 | 1019.1 |
| 20260507084703 | 1 | 174 | 9.7 | 14.5 | 0.00 | 0.91 | 0.00 | 73 | 1019.1 |
| 20260507084202 | 1 | 176 | 9.7 | 19.3 | 0.00 | 0.91 | 0.00 | 74 | 1019.2 |
| 20260507083702 | 1 | 175 | 9.7 | 16.1 | 0.00 | 0.91 | 0.00 | 75 | 1019.2 |
| 20260507083204 | 1 | 177 | 9.7 | 16.1 | 0.00 | 0.91 | 0.00 | 76 | 1019.3 |
| 20260507082204 | 1 | 164 | 8.0 | 14.5 | 0.00 | 0.91 | 0.00 | 76 | 1019.4 |
| 20260507081704 | 1 | 181 | 9.7 | 12.9 | 0.00 | 0.91 | 0.00 | 76 | 1019.4 |
| 20260507081202 | 1 | 170 | 8.0 | 14.5 | 0.00 | 0.91 | 0.00 | 77 | 1019.4 |
| 20260507080704 | 1 | 174 | 9.7 | 20.9 | 0.00 | 0.91 | 0.00 | 77 | 1019.5 |
| 20260507080203 | 1 | 171 | 11.3 | 16.1 | 0.00 | 0.91 | 0.00 | 78 | 1019.5 |
| 20260507075704 | 1 | 177 | 9.7 | 19.3 | 0.00 | 0.91 | 0.00 | 79 | 1019.7 |
| 20260507075203 | 1 | 172 | 9.7 | 19.3 | 0.00 | 0.91 | 0.00 | 79 | 1019.7 |
| 20260507074704 | 1 | 167 | 9.7 | 19.3 | 0.00 | 0.91 | 0.00 | 80 | 1019.8 |
| 20260507074203 | 1 | 177 | 11.3 | 14.5 | 0.00 | 0.91 | 0.00 | 80 | 1019.8 |
| 20260507072702 | 1 | 184 | 11.3 | 16.1 | 0.00 | 0.94 | 0.00 | 80 | 1019.9 |
| 20260507072203 | 1 | 176 | 9.7 | 14.5 | 0.00 | 0.94 | 0.00 | 81 | 1019.9 |
| 20260507071703 | 1 | 180 | 11.3 | 16.1 | 0.00 | 0.94 | 0.00 | 81 | 1019.9 |
| 20260507071204 | 1 | 171 | 9.7 | 14.5 | 0.00 | 0.94 | 0.00 | 81 | 1019.9 |
| 20260507070703 | 1 | 170 | 11.3 | 19.3 | 0.00 | 0.94 | 0.00 | 81 | 1019.9 |
| 20260507070205 | 1 | 172 | 11.3 | 16.1 | 0.00 | 0.94 | 0.00 | 81 | 1020.0 |
| 20260507065703 | 1 | 178 | 11.3 | 19.3 | 0.00 | 0.94 | 0.00 | 82 | 1020.0 |
| 20260507065204 | 1 | 185 | 9.7 | 19.3 | 0.00 | 0.94 | 0.00 | 82 | 1020.0 |
| 20260507064703 | 1 | 176 | 9.7 | 19.3 | 0.00 | 0.94 | 0.00 | 82 | 1019.9 |
| 20260507064204 | 1 | 173 | 8.0 | 14.5 | 0.00 | 0.94 | 0.00 | 82 | 1020.0 |
| 20260507063703 | 1 | 177 | 9.7 | 16.1 | 0.00 | 0.94 | 0.00 | 82 | 1020.0 |
| 20260507063204 | 1 | 176 | 11.3 | 16.1 | 0.00 | 0.94 | 0.00 | 82 | 1020.0 |
| 20260507062703 | 1 | 178 | 9.7 | 19.3 | 0.00 | 0.94 | 0.00 | 82 | 1020.0 |
| 20260507062204 | 1 | 183 | 9.7 | 16.1 | 0.00 | 0.94 | 0.00 | 82 | 1020.0 |
| 20260507061704 | 1 | 182 | 9.7 | 12.9 | 0.00 | 0.94 | 0.00 | 82 | 1020.0 |
| 20260507061204 | 1 | 183 | 9.7 | 16.1 | 0.00 | 0.94 | 0.00 | 83 | 1020.1 |
| 20260507060710 | 1 | 177 | 9.7 | 14.5 | 0.00 | 0.94 | 0.00 | 83 | 1020.0 |
| 20260507060203 | 1 | 179 | 8.0 | 12.9 | 0.00 | 0.94 | 0.00 | 83 | 1020.0 |
| 20260507055704 | 1 | 174 | 8.0 | 12.9 | 0.00 | 0.94 | 0.94 | 83 | 1020.0 |
| 20260507055203 | 1 | 182 | 8.0 | 11.3 | 0.00 | 0.94 | 0.94 | 83 | 1020.1 |
| 20260507054703 | 1 | 182 | 8.0 | 12.9 | 0.00 | 0.94 | 0.94 | 83 | 1020.1 |
| 20260507054203 | 1 | 181 | 8.0 | 11.3 | 0.00 | 0.94 | 0.94 | 83 | 1020.2 |
| 20260507053703 | 1 | 180 | 8.0 | 11.3 | 0.00 | 0.94 | 0.94 | 82 | 1020.2 |
| 20260507052704 | 1 | 182 | 4.8 | 9.7 | 0.00 | 0.94 | 0.94 | 82 | 1020.3 |
| 20260507052204 | 1 | 181 | 3.2 | 4.8 | 0.00 | 0.94 | 0.94 | 82 | 1020.3 |
| 20260507051703 | 1 | 183 | 4.8 | 11.3 | 0.00 | 0.94 | 0.94 | 82 | 1020.2 |
| 20260507051203 | 1 | 160 | 6.4 | 11.3 | 0.00 | 0.94 | 0.94 | 82 | 1020.2 |
| 20260507050703 | 1 | 170 | 6.4 | 12.9 | 0.00 | 0.94 | 0.94 | 82 | 1020.3 |
| 20260507050202 | 1 | 165 | 6.4 | 12.9 | 0.00 | 0.94 | 0.94 | 82 | 1020.3 |
| 20260507044703 | 1 | 179 | 6.4 | 16.1 | 0.00 | 0.94 | 0.94 | 82 | 1020.2 |
| 20260507044203 | 1 | 178 | 9.7 | 19.3 | 0.00 | 0.94 | 0.94 | 82 | 1020.2 |
| 20260507043702 | 1 | 177 | 8.0 | 12.9 | 0.00 | 0.94 | 0.94 | 82 | 1020.2 |
| 20260507042703 | 1 | 196 | 0.0 | 4.8 | 0.00 | 0.94 | 0.94 | 82 | 1020.4 |
| 20260507042204 | 1 | 191 | 3.2 | 8.0 | 0.00 | 0.94 | 0.94 | 82 | 1020.4 |
| 20260507041702 | 1 | 207 | 4.8 | 9.7 | 0.00 | 0.94 | 0.94 | 82 | 1020.3 |
| 20260507041203 | 1 | 198 | 4.8 | 12.9 | 0.00 | 0.94 | 0.94 | 82 | 1020.3 |
| 20260507040703 | 1 | 167 | 4.8 | 14.5 | 0.00 | 0.94 | 0.94 | 83 | 1020.3 |
| 20260507040203 | 1 | 188 | 8.0 | 12.9 | 0.00 | 0.94 | 0.94 | 83 | 1020.3 |
| 20260507035704 | 1 | 170 | 6.4 | 14.5 | 0.00 | 0.94 | 0.94 | 83 | 1020.2 |
| 20260507035203 | 1 | 164 | 3.2 | 9.7 | 0.00 | 0.94 | 0.94 | 83 | 1020.2 |
| 20260507034703 | 1 | 174 | 4.8 | 9.7 | 0.00 | 0.94 | 0.94 | 83 | 1020.2 |
| 20260507034203 | 1 | 169 | 4.8 | 12.9 | 0.00 | 0.94 | 0.94 | 83 | 1020.1 |
| 20260507033704 | 1 | 145 | 3.2 | 9.7 | 0.00 | 0.94 | 0.94 | 82 | 1020.2 |
| 20260507033204 | 1 | 124 | 3.2 | 4.8 | 0.00 | 0.94 | 0.94 | 82 | 1020.1 |
| 20260507032204 | 1 | 124 | 1.6 | 4.8 | 0.00 | 0.94 | 0.94 | 81 | 1020.1 |
| 20260507031203 | 1 | 124 | 1.6 | 4.8 | 0.00 | 0.94 | 0.94 | 80 | 1020.0 |
| 20260507030703 | 1 | 124 | 3.2 | 8.0 | 0.00 | 0.94 | 0.94 | 80 | 1020.1 |
| 20260507030204 | 1 | 145 | 3.2 | 9.7 | 0.00 | 0.94 | 0.94 | 79 | 1020.0 |
| 20260507025703 | 1 | 145 | 3.2 | 8.0 | 0.00 | 0.94 | 0.94 | 79 | 1020.0 |
| 20260507025203 | 1 | 145 | 4.8 | 8.0 | 0.00 | 0.94 | 0.94 | 79 | 1020.0 |
| 20260507024704 | 2 | 143 | 4.8 | 8.0 | 0.00 | 0.94 | 0.94 | 79 | 1020.0 |
| 20260507023703 | 2 | 143 | 4.8 | 8.0 | 0.00 | 0.94 | 0.94 | 78 | 1019.9 |
| 20260507023204 | 2 | 141 | 3.2 | 8.0 | 0.00 | 0.94 | 0.94 | 78 | 1019.9 |
| 20260507022704 | 2 | 141 | 3.2 | 4.8 | 0.00 | 0.94 | 0.94 | 77 | 1019.9 |
| 20260507022203 | 2 | 143 | 3.2 | 4.8 | 0.00 | 0.94 | 0.94 | 77 | 1019.9 |
| 20260507021703 | 2 | 143 | 3.2 | 4.8 | 0.00 | 0.94 | 0.94 | 76 | 1019.9 |
| 20260507021204 | 2 | 144 | 4.8 | 8.0 | 0.00 | 0.94 | 0.94 | 76 | 1019.9 |
| 20260507020203 | 2 | 146 | 4.8 | 9.7 | 0.00 | 0.94 | 0.94 | 75 | 1019.8 |
| 20260507015203 | 3 | 156 | 6.4 | 12.9 | 0.00 | 0.94 | 0.94 | 73 | 1019.9 |
| 20260507014704 | 3 | 150 | 4.8 | 11.3 | 0.00 | 0.94 | 0.94 | 72 | 1020.0 |
| 20260507014204 | 3 | 150 | 6.4 | 11.3 | 0.00 | 0.94 | 0.94 | 71 | 1020.0 |
| 20260507013704 | 3 | 156 | 4.8 | 14.5 | 0.00 | 0.94 | 0.94 | 71 | 1020.1 |
| 20260507013205 | 3 | 143 | 6.4 | 11.3 | 0.00 | 0.94 | 0.94 | 70 | 1020.1 |
| 20260507012704 | 3 | 159 | 4.8 | 14.5 | 0.00 | 0.94 | 0.94 | 69 | 1020.1 |
| 20260507012205 | 3 | 166 | 8.0 | 11.3 | 0.00 | 0.94 | 0.94 | 69 | 1020.2 |
| 20260507011704 | 3 | 130 | 4.8 | 11.3 | 0.00 | 0.94 | 0.94 | 68 | 1020.2 |
| 20260507011204 | 4 | 169 | 4.8 | 11.3 | 0.00 | 0.94 | 0.94 | 68 | 1020.2 |
| 20260507010704 | 4 | 170 | 6.4 | 12.9 | 0.00 | 0.94 | 0.94 | 67 | 1020.3 |
| 20260507010205 | 4 | 162 | 4.8 | 8.0 | 0.00 | 0.94 | 0.94 | 68 | 1020.3 |
| 20260507005705 | 4 | 174 | 6.4 | 11.3 | 0.00 | 0.94 | 0.94 | 68 | 1020.3 |
| 20260507005203 | 4 | 137 | 4.8 | 8.0 | 0.00 | 0.94 | 0.94 | 69 | 1020.3 |
| 20260507004704 | 4 | 126 | 4.8 | 8.0 | 0.00 | 0.94 | 0.94 | 68 | 1020.3 |
| 20260507004204 | 4 | 143 | 3.2 | 11.3 | 0.00 | 0.94 | 0.94 | 67 | 1020.4 |
| 20260507003704 | 4 | 192 | 8.0 | 12.9 | 0.00 | 0.94 | 0.94 | 68 | 1020.4 |
| 20260507003203 | 4 | 179 | 4.8 | 11.3 | 0.00 | 0.94 | 0.94 | 68 | 1020.4 |
| 20260507002704 | 4 | 175 | 8.0 | 11.3 | 0.00 | 0.94 | 0.94 | 69 | 1020.4 |
| 20260507002204 | 4 | 171 | 4.8 | 11.3 | 0.00 | 0.94 | 0.94 | 71 | 1020.5 |
| 20260507001705 | 3 | 150 | 4.8 | 9.7 | 0.00 | 0.94 | 0.94 | 73 | 1020.5 |
| 20260507001205 | 3 | 111 | 3.2 | 9.7 | 0.00 | 0.94 | 0.94 | 73 | 1020.5 |
| 20260507000704 | 3 | 156 | 6.4 | 11.3 | 0.00 | 0.94 | 0.94 | 72 | 1020.5 |
| 20260506235703 | 4 | 164 | 6.4 | 11.3 | 0.00 | 0.94 | 0.94 | 71 | 1020.5 |
| 20260506235204 | 3 | 191 | 4.8 | 8.0 | 0.00 | 0.94 | 0.94 | 71 | 1020.5 |
| 20260506234704 | 3 | 165 | 6.4 | 14.5 | 0.00 | 0.94 | 0.94 | 71 | 1020.5 |
| 20260506234204 | 3 | 129 | 4.8 | 19.3 | 0.00 | 0.94 | 0.94 | 73 | 1020.5 |
| 20260506233704 | 3 | 121 | 3.2 | 8.0 | 0.00 | 0.94 | 0.94 | 73 | 1020.5 |
| 20260506233205 | 3 | 163 | 8.0 | 14.5 | 0.00 | 0.94 | 0.94 | 71 | 1020.6 |
| 20260506232706 | 3 | 162 | 8.0 | 11.3 | 0.00 | 0.94 | 0.94 | 71 | 1020.6 |
| 20260506232204 | 3 | 147 | 3.2 | 8.0 | 0.00 | 0.94 | 0.94 | 71 | 1020.6 |
| 20260506231204 | 3 | 169 | 8.0 | 11.3 | 0.00 | 0.94 | 0.94 | 72 | 1020.6 |
| 20260506230704 | 3 | 191 | 4.8 | 14.5 | 0.00 | 0.94 | 0.94 | 73 | 1020.7 |
| 20260506230204 | 3 | 202 | 1.6 | 11.3 | 0.00 | 0.94 | 0.94 | 74 | 1020.7 |
| 20260506225704 | 3 | 184 | 6.4 | 19.3 | 0.00 | 0.94 | 0.94 | 74 | 1020.7 |
| 20260506224704 | 3 | 154 | 4.8 | 11.3 | 0.00 | 1.02 | 0.94 | 75 | 1020.8 |
| 20260506224204 | 3 | 157 | 4.8 | 9.7 | 0.00 | 1.04 | 0.94 | 77 | 1020.9 |
| 20260506223203 | 2 | 137 | 3.2 | 4.8 | 0.00 | 1.09 | 0.94 | 79 | 1021.0 |
| 20260506222205 | 2 | 137 | 1.6 | 4.8 | 0.03 | 1.12 | 0.94 | 79 | 1021.1 |
| 20260506221204 | 2 | 146 | 3.2 | 8.0 | 0.03 | 1.17 | 0.94 | 79 | 1021.2 |
| 20260506220203 | 2 | 160 | 1.6 | 4.8 | 0.03 | 1.24 | 0.94 | 78 | 1021.3 |
| 20260506215704 | 2 | 151 | 1.6 | 4.8 | 0.03 | 1.24 | 0.94 | 79 | 1021.3 |
| 20260506214703 | 2 | 151 | 0.0 | 4.8 | 0.03 | 1.27 | 0.94 | 80 | 1021.3 |
| 20260506214205 | 2 | 143 | 1.6 | 4.8 | 0.05 | 1.30 | 0.94 | 80 | 1021.3 |
| 20260506213704 | 2 | 160 | 3.2 | 9.7 | 0.05 | 1.30 | 0.94 | 80 | 1021.4 |
| 20260506213204 | 2 | 126 | 3.2 | 9.7 | 0.05 | 1.30 | 0.94 | 81 | 1021.5 |
| 20260506212704 | 2 | 37 | 1.6 | 4.8 | 0.03 | 1.27 | 0.91 | 81 | 1021.6 |
| 20260506211703 | 2 | 37 | 1.6 | 3.2 | 0.05 | 1.30 | 0.91 | 82 | 1021.6 |
| 20260506211204 | 2 | 37 | 0.0 | 3.2 | 0.05 | 1.35 | 0.91 | 82 | 1021.6 |
| 20260506210703 | 2 | 38 | 0.0 | 0.0 | 0.08 | 1.35 | 0.91 | 82 | 1021.7 |
| 20260506210207 | 1 | 38 | 0.0 | 1.6 | 0.08 | 1.37 | 0.91 | 82 | 1021.7 |
| 20260506205204 | 1 | 39 | 0.0 | 4.8 | 0.13 | 1.37 | 0.91 | 82 | 1021.9 |
| 20260506204705 | 2 | 39 | 3.2 | 4.8 | 0.15 | 1.37 | 0.91 | 83 | 1021.9 |
| 20260506204204 | 2 | 39 | 1.6 | 4.8 | 0.15 | 1.35 | 0.89 | 83 | 1021.9 |
| 20260506203704 | 1 | 36 | 1.6 | 4.8 | 0.15 | 1.35 | 0.89 | 83 | 1021.9 |
| 20260506203203 | 1 | 29 | 1.6 | 4.8 | 0.18 | 1.35 | 0.89 | 83 | 1021.9 |
| 20260506202704 | 2 | 29 | 3.2 | 4.8 | 0.20 | 1.35 | 0.89 | 84 | 1022.0 |
| 20260506202204 | 1 | 2 | 3.2 | 4.8 | 0.20 | 1.32 | 0.86 | 84 | 1022.0 |
| 20260506201705 | 1 | 1 | 4.8 | 8.0 | 0.23 | 1.32 | 0.86 | 84 | 1022.0 |
| 20260506201204 | 1 | 10 | 4.8 | 9.7 | 0.25 | 1.32 | 0.86 | 85 | 1022.0 |
| 20260506200705 | 1 | 29 | 1.6 | 4.8 | 0.25 | 1.30 | 0.84 | 86 | 1022.1 |
| 20260506200204 | 1 | 29 | 4.8 | 8.0 | 0.30 | 1.30 | 0.84 | 86 | 1022.1 |
| 20260506195703 | 1 | 329 | 4.8 | 8.0 | 0.36 | 1.30 | 0.81 | 86 | 1022.2 |
| 20260506195205 | 1 | 17 | 4.8 | 8.0 | 0.38 | 1.30 | 0.81 | 86 | 1022.2 |
| 20260506194704 | 1 | 6 | 3.2 | 9.7 | 0.38 | 1.27 | 0.79 | 87 | 1022.1 |
| 20260506194204 | 1 | 354 | 6.4 | 11.3 | 0.38 | 1.24 | 0.74 | 87 | 1022.2 |
| 20260506193703 | 1 | 33 | 4.8 | 9.7 | 0.41 | 1.24 | 0.74 | 87 | 1022.3 |
| 20260506193203 | 0 | 15 | 6.4 | 12.9 | 0.41 | 1.19 | 0.71 | 87 | 1022.3 |
| 20260506192705 | 1 | 340 | 6.4 | 9.7 | 0.38 | 1.17 | 0.69 | 87 | 1022.3 |
| 20260506192206 | 1 | 6 | 8.0 | 11.3 | 0.38 | 1.14 | 0.66 | 88 | 1022.3 |
| 20260506191704 | 1 | 22 | 6.4 | 9.7 | 0.36 | 1.12 | 0.64 | 87 | 1022.4 |
| 20260506191207 | 1 | 6 | 6.4 | 14.5 | 0.36 | 1.09 | 0.61 | 88 | 1022.4 |
| 20260506190704 | 1 | 10 | 8.0 | 14.5 | 0.30 | 1.07 | 0.58 | 88 | 1022.4 |
| 20260506190203 | 1 | 28 | 6.4 | 11.3 | 0.28 | 1.02 | 0.51 | 88 | 1022.3 |
| 20260506185704 | 1 | 31 | 4.8 | 9.7 | 0.23 | 0.94 | 0.46 | 88 | 1022.4 |
| 20260506185204 | 1 | 50 | 8.0 | 12.9 | 0.20 | 0.91 | 0.43 | 88 | 1022.4 |
| 20260506184705 | 0 | 34 | 8.0 | 16.1 | 0.20 | 0.89 | 0.41 | 88 | 1022.4 |
| 20260506184204 | 0 | 7 | 9.7 | 14.5 | 0.18 | 0.86 | 0.38 | 88 | 1022.5 |
| 20260506183704 | 0 | 12 | 8.0 | 12.9 | 0.18 | 0.84 | 0.36 | 88 | 1022.6 |
| 20260506183203 | 0 | 357 | 6.4 | 11.3 | 0.15 | 0.81 | 0.30 | 88 | 1022.6 |
| 20260506182706 | 0 | 21 | 4.8 | 11.3 | 0.15 | 0.81 | 0.30 | 89 | 1022.6 |